Nanaimo, British Columbia

9:11 PM PDT on September 19, 2019 (GMT -0700)
Nanaimo

Weather History for CYCD - August, 2019

Change the Weather History Date:

Sunday, August 25, 2019

  Actual Average Record
Temperature  
Mean Temperature 54 °F -  
Max Temperature 71 °F 70 °F 89 °F (2016)
Min Temperature 36 °F 48 °F 44 °F (2012)
Degree Days  
Heating Degree Days 12    
Growing Degree Days 4 (Base 50)    
Moisture  
Dew Point 49 °F    
Average Humidity 63    
Maximum Humidity 100    
Minimum Humidity 41    
Precipitation  
Precipitation 0.00 in 0.05 in - ()
Sea Level Pressure  
Sea Level Pressure 30.21 in    
Wind  
Wind Speed 5 mph ()    
Max Wind Speed 13 mph    
Max Gust Speed 18 mph    
Averages and records for this station are not official NWS values.
T = Trace of Precipitation, MM = Missing Value Source: Averaged Metar Reports

Daily Weather History Graph

Daily Weather History Graph

Search for Another Location

Airport or City:

Astronomy

Aug. 25, 2019 Rise Set
Actual Time 6:21 AM PDT 8:12 PM PDT
Civil Twilight 5:48 AM PDT 8:45 PM PDT
Nautical Twilight 5:06 AM PDT 9:27 PM PDT
Astronomical Twilight 4:20 AM PDT 10:13 PM PDT
Moon 12:44 AM PDT (8/25) 4:58 PM PDT (8/25)
Length of Visible Light 14h 57m
Length of Day
13h 50m
Waning Crescent, 28% of the Moon is Illuminated
Aug 25
Waning Crescent
Aug 30
New
Sep 5
First Quarter
Sep 13
Full
Sep 21
Last Quarter

Hourly Weather History & Observations

Time (PDT) Temp. Dew Point Humidity Pressure Visibility Wind Dir Wind Speed Gust Speed Precip Events Conditions
2:00 AM 38 °F 38 °F 100% 30.35 in - Calm Calm - -  
5:00 AM 53 °F 50 °F 87% 30.39 in - SW 2.3 mph - -  
6:00 AM 60.8 °F 51.8 °F 72% 30.08 in 30.0 mi WNW 2.3 mph - N/A   Mostly Cloudy
7:00 AM 60.8 °F 51.8 °F 72% 30.10 in 30.0 mi West 6.9 mph - N/A   Scattered Clouds
8:00 AM 62.6 °F 51.8 °F 68% 30.11 in 30.0 mi WNW 11.5 mph 18.4 mph N/A   Partly Cloudy
9:00 AM 66.2 °F 50.0 °F 56% 30.13 in 30.0 mi North 8.1 mph - N/A   Partly Cloudy
10:00 AM 68.0 °F 50.0 °F 52% 30.14 in 25.0 mi North 12.7 mph - N/A   Partly Cloudy
11:00 AM 67 °F 49 °F 41% 30.34 in - SW 11.5 mph - -  
12:00 PM 69.8 °F 50.0 °F 49% 30.17 in 30.0 mi NNE 11.5 mph 17.3 mph N/A   Partly Cloudy
1:00 PM 71.6 °F 50.0 °F 46% 30.17 in 30.0 mi NE 9.2 mph - N/A   Partly Cloudy
2:00 PM 71.6 °F 50.0 °F 46% 30.18 in 25.0 mi Variable 5.8 mph - N/A   Scattered Clouds
3:00 PM 71.6 °F 48.2 °F 43% 30.19 in 25.0 mi North 5.8 mph - N/A   Scattered Clouds
4:00 PM 71.6 °F 48.2 °F 43% 30.19 in 25.0 mi North 3.5 mph - N/A   Scattered Clouds
5:00 PM 59 °F 49 °F 60% 30.29 in - WSW 3.5 mph - -  
6:00 PM 71.6 °F 51.8 °F 50% 30.19 in 25.0 mi SE 4.6 mph - N/A   Scattered Clouds
7:00 PM 69.8 °F 50.0 °F 49% 30.19 in 25.0 mi East 3.5 mph - N/A   Partly Cloudy
8:00 PM 50 °F 50 °F 100% 30.29 in - South 2.3 mph - -  
8:00 PM 64.4 °F 51.8 °F 64% 30.19 in 25.0 mi South 5.8 mph - N/A   Partly Cloudy
9:00 PM 60.8 °F 51.8 °F 72% 30.21 in 25.0 mi Variable 2.3 mph - N/A   Partly Cloudy
11:00 PM 45 °F 45 °F 98% 30.29 in - WSW 2.3 mph - -